GFSMW_850_temp_132.txt.gz
Temp
20 20 21 21 22 22 22 22 21 19 19 18 18 17 18 18 17 17 16 16 15 15 14 14 15 14 14 14 15 12 12 12 11 11 10 10 10 10 11 11 12 12 11
19 20 21 20 21 21 20 19 18 18 18 17 17 17 17 17 17 17 16 16 16 15 15 14 15 14 14 14 13 12 12 12 12 10 10 10 10 9 10 11 12 12 11
19 20 19 18 19 19 19 19 19 18 17 17 17 16 16 17 16 16 16 15 16 15 15 14 14 14 13 14 13 12 12 13 12 11 11 10 10 10 10 10 11 11 11
19 19 19 17 18 17 17 17 17 17 16 16 16 16 16 16 16 16 16 16 15 14 14 14 14 14 13 13 13 13 13 13 13 12 11 11 11 10 9 9 10 11 11
18 19 18 19 18 17 17 17 17 18 17 16 15 15 15 15 15 16 16 15 14 14 14 14 13 14 14 14 14 13 12 12 13 13 11 11 11 11 10 9 9 10 10
18 19 18 16 16 16 16 17 17 19 18 15 14 14 14 14 15 15 15 14 14 14 14 14 13 14 14 14 13 12 12 12 12 12 11 12 11 11 11 11 10 10 10
17 18 16 16 15 15 16 16 17 16 14 14 14 13 13 12 12 13 13 14 14 14 14 13 13 13 13 13 12 12 12 11 12 11 11 12 12 10 11 11 9 9 10
15 17 16 15 15 15 15 15 15 14 13 13 13 12 11 11 11 11 12 13 13 13 13 13 12 13 13 12 11 11 11 11 11 11 11 11 11 10 10 10 10 9 9
15 15 15 15 15 15 14 14 14 14 13 13 13 12 12 11 11 11 11 12 12 13 13 12 12 12 12 12 11 11 10 11 11 11 11 11 11 10 10 9 10 12 10
14 14 14 14 15 14 13 13 13 13 12 12 12 12 12 11 11 11 11 11 12 12 12 12 12 11 12 11 11 11 11 11 11 11 11 10 10 10 9 9 10 10 11
9 9 12 14 14 13 12 11 12 12 12 12 12 12 12 12 11 11 11 10 11 12 12 12 12 11 11 11 11 11 11 11 10 10 10 10 10 10 9 9 9 10 10
8 8 10 11 11 10 10 10 10 10 10 11 11 12 12 12 11 11 11 10 10 11 11 12 12 12 11 11 11 10 10 10 10 10 10 10 9 9 10 9 9 10 9
6 9 9 8 7 8 8 8 8 8 9 10 11 11 11 11 11 11 11 11 10 10 11 12 12 12 12 11 11 11 10 10 10 10 9 9 9 10 9 9 9 9 9
8 7 7 6 6 6 6 7 7 7 8 9 10 10 10 11 11 10 10 11 11 10 10 11 11 11 12 11 11 11 11 11 10 10 9 9 9 9 9 10 9 9 9
4 4 4 4 5 5 5 5 6 6 8 9 9 10 10 10 10 9 9 10 10 10 10 11 11 11 12 12 11 11 11 11 10 10 9 9 9 9 9 9 9 9 9
3 3 2 3 4 4 4 4 5 7 7 7 8 8 9 9 9 9 9 9 10 9 10 10 11 12 11 12 11 11 11 11 10 10 10 10 9 9 9 9 9 9 10
1 1 1 1 2 2 2 3 4 5 6 6 6 7 7 8 8 8 9 8 9 9 10 10 10 11 11 11 11 11 10 10 9 10 9 9 9 9 9 9 9 9 9
-0 -0 -0 -1 -1 -0 1 2 4 4 4 4 4 5 5 6 7 7 8 8 8 9 9 10 10 11 11 11 11 10 10 10 9 10 9 9 9 9 9 9 9 9 9
-1 -1 -1 -1 0 1 1 2 2 2 2 3 3 3 3 5 5 5 6 7 7 9 9 9 10 10 10 10 11 10 10 9 9 9 9 9 9 9 8 8 8 9 8
-1 -2 -2 -1 -1 -1 -2 -1 0 0 2 2 2 1 2 3 4 4 6 6 6 7 8 9 10 10 10 10 10 10 9 9 9 9 9 9 8 8 8 7 9 8 8
-3 -3 -3 -2 -2 -1 -2 -1 -1 -1 -0 1 1 1 -0 1 2 4 5 6 6 6 7 8 7 9 9 10 9 9 9 9 9 8 8 8 8 8 6 6 8 8 7
-4 -5 -4 -5 -5 -4 -2 -2 -2 -2 -2 -1 -1 -2 -3 -0 1 3 5 5 4 4 5 5 7 8 8 9 9 9 8 8 8 8 7 7 7 5 4 5 6 7 7
-6 -7 -6 -5 -6 -6 -6 -6 -5 -4 -3 -4 -4 -4 -3 -1 0 2 4 3 1 2 3 3 5 3 8 8 8 8 7 7 7 6 6 6 5 4 3 3 3 4 4
-7 -7 -6 -6 -6 -6 -7 -8 -9 -8 -7 -7 -6 -4 -3 -2 -2 0 1 0 0 0 1 1 1 2 2 7 8 7 7 6 5 5 5 4 2 2 3 2 2 2 2
-8 -8 -8 -9 -9 -9 -9 -8 -8 -7 -6 -6 -6 -5 -5 -4 -4 -3 -2 -2 -2 -1 -1 -0 1 2 -1 4 6 8 7 6 5 4 3 1 -0 0 0 -1 -0 -0 -1
-9 -9 -9 -9 -8 -8 -8 -8 -8 -8 -8 -7 -7 -7 -6 -6 -5 -5 -5 -4 -3 -3 -2 -1 -1 -0 -0 -2 -2 4 5 4 4 2 1 -1 -2 -1 -2 -2 -3 -4 -3

GFSMW_850_temp_135.txt.gz
Temp
19 20 19 20 20 21 22 21 22 22 22 21 20 19 19 18 18 18 17 16 15 15 14 15 14 15 15 15 15 13 12 12 12 11 10 10 10 9 10 11 10 11 11
19 19 19 19 20 20 19 22 21 22 21 21 20 19 19 18 18 17 17 17 16 16 15 15 15 15 14 14 14 14 12 12 12 11 10 9 9 9 10 11 10 10 10
18 19 19 19 20 18 18 20 21 21 19 19 19 18 18 17 17 17 17 16 16 15 15 15 14 15 14 15 15 14 14 13 12 11 11 10 10 10 10 10 10 10 10
18 18 18 18 18 16 16 17 17 17 17 17 16 16 17 17 17 17 17 16 16 15 14 14 14 14 14 14 15 14 14 14 13 11 10 11 11 10 9 10 10 9 9
17 17 17 18 17 16 16 16 16 16 16 17 17 17 16 16 16 16 16 15 15 14 14 14 14 13 13 14 14 14 13 13 13 13 13 11 10 11 11 9 9 9 10
15 17 17 17 15 16 16 16 16 16 16 15 16 17 15 15 14 14 15 14 14 14 14 14 14 14 13 13 13 13 13 13 14 13 13 13 11 11 11 11 11 10 9
14 15 16 15 14 14 15 15 15 13 14 14 14 14 14 14 14 14 14 13 13 13 14 13 13 14 13 13 13 13 13 13 13 13 13 13 13 11 11 11 10 9 9
11 14 15 15 14 14 14 14 15 15 14 14 15 15 14 13 13 12 12 12 12 13 13 13 13 13 14 13 13 13 13 13 12 12 12 12 12 12 11 11 10 8 8
6 12 13 13 13 13 13 13 13 14 14 14 13 13 13 12 12 11 11 11 11 12 12 13 13 13 13 13 13 13 13 13 12 12 12 11 12 11 10 10 9 10 8
5 8 9 10 11 12 11 11 12 12 12 12 12 12 12 12 12 12 11 11 11 11 12 12 12 12 12 12 12 12 13 11 11 11 11 12 11 10 10 10 9 9 9
5 6 7 8 8 8 9 10 11 11 10 9 10 11 12 11 11 11 11 11 11 11 12 12 12 12 12 12 12 12 12 11 11 11 11 11 11 10 10 10 10 9 9
3 5 5 6 5 6 7 8 9 9 9 9 9 10 11 11 11 11 11 11 11 11 11 11 11 12 12 12 12 11 11 11 11 11 11 11 11 10 10 10 10 9 8
4 3 2 3 3 4 5 6 7 8 8 8 9 10 10 10 10 11 11 11 11 11 11 10 11 11 11 12 12 11 11 11 11 11 11 10 10 10 10 10 9 9 9
2 2 1 1 1 2 4 5 7 7 7 7 7 8 9 10 10 10 10 10 10 10 11 11 11 11 11 11 11 12 11 11 11 10 10 9 10 9 9 9 9 9 8
0 0 1 0 1 3 3 4 4 4 5 5 5 7 8 9 9 9 10 10 10 10 9 9 10 10 10 11 11 11 11 11 10 10 10 9 9 9 9 9 9 8 8
1 -0 -0 -1 0 0 1 1 2 3 3 2 3 5 7 8 8 9 9 10 10 10 9 8 9 10 11 11 11 11 11 12 11 10 10 10 10 9 9 9 9 9 8
-1 -2 -2 -2 -2 -1 -0 1 1 2 2 2 3 4 4 6 7 7 8 8 9 9 9 9 8 9 10 10 10 11 11 11 11 11 10 10 10 9 9 9 9 9 9
-3 -3 -3 -3 -3 -3 -1 0 0 0 0 1 2 3 3 5 6 6 6 7 8 8 8 8 8 9 9 10 11 10 10 11 11 10 10 9 9 9 9 9 9 9 9
-4 -4 -3 -3 -3 -3 -3 -2 -1 -1 -0 1 1 1 2 3 4 5 5 5 6 7 7 8 8 9 9 10 10 10 10 10 10 10 10 8 9 9 9 9 9 9 8
-4 -5 -5 -5 -4 -3 -3 -2 -2 -2 -1 -1 -1 -0 0 1 3 4 4 4 5 5 5 7 7 7 8 9 10 10 10 10 10 10 9 9 9 9 9 9 8 8 8
-6 -6 -6 -6 -6 -5 -4 -4 -4 -4 -4 -3 -2 -2 -1 -0 1 2 3 4 4 5 4 6 6 6 7 8 9 9 10 9 10 9 8 8 9 9 8 9 8 8 8
-6 -6 -6 -6 -6 -6 -5 -5 -5 -5 -4 -3 -3 -2 -2 -1 -0 0 2 3 3 3 2 4 5 5 5 6 8 8 9 9 9 9 9 8 9 9 8 7 6 6 6
-7 -7 -7 -6 -6 -6 -6 -6 -5 -5 -4 -4 -4 -4 -3 -3 -3 -2 -1 1 1 1 1 2 2 4 4 4 6 9 6 8 8 8 8 8 8 8 7 6 3 3 3
-7 -7 -7 -6 -7 -7 -8 -8 -7 -6 -5 -5 -5 -5 -5 -4 -4 -4 -3 -2 -2 -1 0 0 0 1 2 2 3 3 5 5 7 7 7 7 6 6 5 4 2 1 1
-7 -7 -8 -8 -8 -8 -7 -8 -8 -8 -7 -7 -7 -7 -7 -7 -7 -7 -6 -5 -4 -3 -2 -1 -1 -2 -0 0 1 1 1 2 5 7 6 4 4 3 2 1 -0 -0 0
-8 -8 -8 -8 -8 -8 -7 -7 -8 -8 -9 -8 -8 -9 -9 -9 -9 -8 -7 -7 -6 -3 -2 -2 -3 -2 -2 -1 -1 -0 0 -0 -0 2 5 3 2 2 0 -1 -1 -1 -1

GFSMW_850_temp_141.txt.gz
Temp
14 16 17 17 17 17 17 18 19 20 20 21 21 20 20 19 18 18 18 17 18 17 17 17 17 16 15 15 15 14 13 13 12 12 11 11 11 11 11 11 11 11 11
13 14 15 16 16 16 17 18 18 19 19 20 21 20 21 19 17 17 17 17 17 17 17 16 16 16 14 13 14 14 13 12 12 12 11 11 11 11 11 11 11 11 10
8 12 14 14 15 16 16 17 18 18 18 19 19 17 14 13 15 17 18 18 17 16 15 15 14 14 14 13 13 14 14 12 12 12 12 11 10 11 11 12 11 10 10
11 11 13 14 14 15 15 16 17 18 18 18 15 13 13 13 13 17 19 17 17 17 15 14 14 14 14 13 13 13 13 14 13 12 11 12 13 11 10 11 11 10 10
6 7 9 11 13 14 15 16 16 16 17 16 13 13 13 14 13 14 14 17 17 17 16 14 12 13 13 15 13 13 12 13 12 15 13 11 11 12 12 10 11 10 10
5 5 6 7 10 12 13 14 13 14 12 12 12 13 13 14 16 16 15 13 16 16 15 16 14 14 13 13 13 13 13 13 12 12 11 13 11 11 11 11 11 12 12
5 4 4 6 8 8 9 11 11 12 12 11 12 12 13 15 15 14 13 12 13 15 15 14 14 14 14 13 13 12 13 12 12 12 12 13 13 12 12 12 11 12 10
2 2 2 1 3 5 8 9 10 10 10 10 10 11 14 15 15 12 11 12 12 13 13 14 14 14 14 13 13 12 12 12 12 12 12 12 12 13 12 12 11 10 10
1 0 1 -0 -1 1 2 3 6 7 7 9 10 11 12 13 12 12 13 12 12 11 11 12 12 12 13 13 12 12 13 12 12 12 11 12 12 13 12 13 12 11 10
-0 -1 0 -1 0 -1 0 2 2 5 8 9 9 10 12 13 13 13 11 12 11 11 11 11 11 11 12 12 12 12 12 12 12 12 11 12 12 13 13 12 12 11 11
-1 -1 -2 -0 -1 1 -1 -1 1 3 2 8 9 10 10 11 11 11 11 10 10 10 11 10 10 11 11 11 11 12 12 12 12 12 11 11 12 12 13 12 11 11 10
-2 -2 -3 -2 -1 -2 1 -3 -0 -0 1 4 8 10 10 10 11 10 10 10 10 11 11 11 10 10 10 10 11 11 11 11 11 12 11 12 12 11 12 12 12 11 11
-2 -2 -3 -4 -2 -3 -1 -1 -2 -1 1 2 6 8 9 9 9 10 9 10 10 10 10 10 10 10 10 9 10 11 11 11 11 12 11 11 11 11 11 11 11 11 10
-3 -3 -4 -4 -4 -3 -4 -1 -1 -1 1 3 6 7 8 8 8 8 9 9 9 10 9 9 10 9 10 10 10 10 10 11 11 11 11 11 11 11 11 11 11 11 10
-3 -4 -5 -5 -6 -4 -5 -1 -0 -2 -1 -0 2 4 5 6 6 6 7 8 8 8 8 8 9 9 10 9 8 9 9 10 10 11 11 11 11 11 11 11 11 11 10
-4 -5 -6 -6 -7 -7 -6 -5 -3 -4 -4 -2 -0 1 3 4 5 5 6 6 7 7 7 7 8 9 9 9 8 8 9 9 10 10 11 11 11 10 10 11 11 10 10
-5 -6 -7 -7 -8 -7 -8 -7 -5 -4 -3 -3 -1 1 3 3 4 4 5 5 6 6 6 6 7 8 9 9 8 8 9 9 10 10 10 11 11 10 10 10 10 10 9
-7 -7 -7 -8 -7 -7 -6 -5 -5 -5 -5 -5 -4 -2 0 1 1 3 4 4 4 4 5 5 6 7 9 8 8 8 8 8 9 9 9 10 10 10 10 9 9 9 9
-8 -8 -7 -7 -6 -6 -6 -5 -6 -5 -5 -5 -4 -2 -2 -2 -2 -0 1 2 3 3 4 4 6 6 7 8 8 8 8 8 8 9 9 9 9 9 9 9 9 9 9
-8 -7 -7 -8 -6 -6 -6 -6 -6 -6 -6 -6 -6 -5 -5 -4 -3 -2 -2 -1 -0 1 2 3 4 5 6 7 7 7 7 8 9 9 9 9 9 9 10 9 9 9 10
-7 -7 -7 -7 -7 -6 -6 -6 -7 -8 -7 -7 -7 -6 -5 -4 -4 -4 -3 -2 -1 -0 1 2 3 3 4 5 5 6 6 5 7 8 9 8 8 9 9 9 9 9 9
-7 -7 -7 -7 -7 -7 -6 -6 -6 -7 -7 -7 -7 -6 -6 -6 -6 -6 -5 -4 -3 -2 -1 -0 1 2 3 4 4 4 4 5 6 7 8 8 8 8 9 9 9 9 9
-7 -7 -8 -7 -8 -8 -8 -7 -7 -7 -7 -7 -7 -7 -7 -6 -6 -6 -7 -7 -6 -5 -5 -4 -1 1 1 2 2 2 3 4 5 6 7 7 7 8 8 9 9 8 8
-10 -9 -9 -10 -9 -8 -8 -8 -8 -8 -8 -8 -7 -7 -7 -7 -7 -7 -8 -8 -8 -8 -9 -8 -6 -3 -1 -1 -2 -1 1 2 3 4 5 6 6 7 9 7 8 8 8
-8 -9 -9 -9 -8 -8 -8 -8 -8 -7 -7 -7 -7 -7 -7 -7 -7 -7 -9 -9 -9 -9 -10 -9 -9 -7 -6 -4 -3 -2 -1 0 0 -0 1 3 3 4 5 5 7 7 6
-9 -9 -9 -9 -9 -9 -8 -8 -8 -8 -8 -8 -8 -9 -9 -9 -9 -9 -7 -9 -9 -9 -9 -9 -9 -8 -6 -5 -4 -3 -2 -2 -2 -2 -2 0 1 1 2 4 4 4 4

GFSMW_850_temp_144.txt.gz
Temp
14 14 13 13 13 13 15 16 17 17 16 16 15 15 15 16 14 15 15 14 18 19 19 18 14 14 13 13 13 13 13 12 13 12 12 12 11 11 11 11 11 12 11
13 13 12 12 12 12 12 13 15 16 16 16 16 16 15 15 15 14 14 14 13 17 18 17 13 13 13 13 13 13 13 12 13 12 11 11 11 11 11 11 11 10 11
11 11 11 10 10 11 11 11 13 15 15 16 16 16 15 14 13 13 13 13 14 14 17 16 13 15 12 13 12 13 13 13 12 12 12 11 11 11 11 11 11 11 11
9 9 8 6 7 9 10 10 11 13 15 15 15 16 15 14 14 13 13 12 13 16 17 16 15 16 16 12 13 12 13 12 12 12 12 12 13 13 12 10 11 11 10
8 6 5 3 3 7 7 9 10 12 13 14 14 14 15 14 13 12 12 12 12 13 13 14 15 16 16 15 12 12 12 13 12 12 11 12 12 13 15 14 10 10 10
3 2 2 2 1 4 6 7 8 10 10 12 13 13 14 13 13 12 13 12 13 13 13 13 13 14 16 14 14 13 11 13 12 12 12 12 12 12 13 14 13 11 10
0 -0 -1 -0 0 2 2 3 4 6 8 11 11 12 13 13 13 13 13 13 13 13 14 12 12 12 13 14 14 13 14 13 12 12 12 12 12 12 13 14 14 12 12
-0 -1 -1 -1 -1 1 -1 0 2 3 4 6 9 11 12 12 11 12 11 11 14 15 15 15 12 11 12 13 12 13 13 13 12 12 11 12 12 12 12 13 13 12 11
-0 -1 -2 -1 -1 -2 -0 -1 -1 1 2 2 4 6 9 10 11 11 12 12 13 14 15 14 11 11 12 12 12 12 12 12 12 11 12 12 12 11 12 11 12 13 13
-0 -1 -2 -2 -0 -1 -1 -0 -1 -1 1 1 2 3 4 7 8 10 13 13 12 14 12 12 12 11 11 11 12 11 12 12 12 11 12 11 12 12 11 11 11 12 13
-1 -2 -2 -1 -1 -1 -2 -2 -0 -2 -1 1 -1 1 2 5 8 9 10 10 11 10 11 11 11 11 10 11 11 11 11 11 12 12 12 11 11 12 12 11 11 11 11
-1 -2 -3 -3 -2 -2 -2 -3 -1 -1 -3 -0 -2 2 -0 1 2 5 8 10 10 11 11 11 11 11 10 10 10 11 11 11 11 12 11 11 11 11 12 11 12 11 11
0 -1 -3 -4 -3 -2 -2 -2 -3 -1 -3 -3 -0 3 2 2 1 3 7 8 9 10 10 10 10 10 10 10 9 10 10 10 11 11 11 11 11 11 11 11 11 11 11
-0 -1 -3 -4 -5 -3 -3 -3 -2 -2 -4 -5 -4 -3 1 2 3 0 6 6 9 9 9 9 9 9 10 10 8 9 9 10 10 11 11 11 11 11 11 11 11 11 11
-1 -2 -3 -4 -5 -5 -3 -3 -2 -2 -2 -4 -5 -4 -1 4 4 4 6 7 8 8 8 9 9 10 10 8 9 10 10 10 10 10 10 10 11 11 11 11 11 11 11
-2 -3 -3 -4 -5 -6 -6 -4 -4 -3 -3 -4 -3 -1 0 1 1 4 5 5 6 7 7 7 8 9 8 9 8 8 10 10 9 10 10 10 10 11 11 11 11 11 11
-3 -4 -4 -5 -6 -7 -8 -6 -5 -4 -4 -4 -4 -5 -3 0 2 3 3 4 5 5 5 6 7 8 8 8 8 9 9 9 9 9 9 10 10 10 11 11 10 10 10
-4 -5 -5 -5 -6 -7 -8 -8 -8 -8 -8 -6 -6 -5 -3 -1 1 1 1 2 4 4 5 5 6 7 7 7 7 8 8 9 9 9 9 9 9 9 10 10 10 10 10
-5 -5 -6 -6 -6 -7 -8 -8 -8 -8 -8 -9 -9 -8 -8 -5 -2 -0 -0 0 0 1 4 4 5 5 5 5 6 6 7 8 8 9 8 8 9 9 9 9 10 10 10
-5 -6 -6 -6 -7 -7 -8 -8 -8 -8 -9 -9 -9 -8 -8 -7 -6 -3 -2 -3 -0 1 2 3 3 3 4 4 4 4 5 7 7 8 9 8 9 9 9 9 10 9 10
-6 -6 -6 -7 -7 -8 -8 -8 -8 -9 -9 -9 -9 -8 -8 -8 -9 -8 -7 -6 -5 -5 -3 -1 0 1 2 2 3 3 3 4 6 6 8 7 8 9 9 8 9 9 10
-6 -7 -7 -7 -7 -8 -8 -8 -8 -9 -10 -9 -8 -7 -8 -9 -9 -9 -8 -8 -8 -8 -7 -6 -3 -1 0 1 1 1 1 0 1 5 5 6 7 8 9 8 8 8 9
-7 -7 -8 -7 -8 -8 -9 -9 -9 -10 -10 -10 -9 -8 -8 -8 -9 -9 -9 -9 -9 -9 -9 -8 -8 -5 -2 -1 -2 -1 -2 -1 0 1 3 4 6 7 8 9 9 8 9
-7 -8 -8 -8 -8 -9 -9 -9 -10 -10 -10 -10 -9 -10 -9 -8 -9 -10 -10 -10 -9 -9 -10 -9 -9 -8 -7 -5 -5 -4 -3 -2 -1 0 1 3 5 5 7 7 8 7 7
-8 -9 -9 -9 -9 -10 -10 -10 -11 -11 -11 -11 -10 -10 -11 -11 -10 -10 -10 -11 -11 -10 -11 -11 -10 -10 -9 -8 -7 -6 -5 -4 -2 -1 -2 -0 1 2 3 4 5 6 7
-10 -10 -10 -10 -11 -11 -10 -11 -11 -10 -10 -11 -10 -11 -11 -11 -11 -11 -10 -10 -10 -9 -10 -10 -10 -9 -9 -8 -8 -7 -7 -6 -5 -4 -4 -3 -2 -1 -0 1 2 2 4

GFSMW_850_temp_147.txt.gz
Temp
15 14 13 12 10 10 10 11 12 13 15 16 16 16 16 16 16 16 16 16 16 15 16 15 14 14 14 14 14 14 14 14 13 14 15 14 13 13 13 13 12 12 11
13 13 11 9 7 7 6 7 9 12 13 14 16 17 17 17 17 16 16 16 16 15 16 15 14 14 13 13 13 13 13 13 13 13 13 12 12 13 12 12 12 12 12
11 9 8 7 6 5 4 7 9 10 11 13 14 16 17 17 17 16 16 16 15 15 15 14 14 14 14 14 13 14 13 13 13 12 12 12 12 12 12 12 12 12 12
7 6 5 5 5 4 2 4 6 8 9 11 13 14 16 17 17 16 16 15 15 15 14 14 14 14 14 13 14 13 13 12 12 12 12 13 13 13 13 12 12 11 11
5 4 4 3 3 1 1 2 4 6 8 9 10 11 13 15 16 17 16 15 14 14 14 14 14 14 13 13 13 13 14 15 17 12 12 12 12 13 13 14 11 11 11
4 4 3 3 2 1 2 2 3 3 5 7 8 8 11 12 15 16 17 14 13 14 13 13 13 13 13 13 12 12 13 14 14 12 12 12 12 12 12 14 13 12 12
4 3 3 2 2 0 2 2 2 3 2 4 5 8 9 11 12 14 15 14 14 14 14 13 13 13 13 13 11 12 14 14 14 12 13 11 11 12 12 12 13 13 12
5 4 3 1 -0 -1 0 2 1 1 2 2 2 5 8 9 11 13 13 13 12 13 13 12 12 12 12 13 10 14 13 12 13 12 12 12 12 11 12 12 12 13 12
4 3 1 -0 -1 -2 -2 -0 -0 0 0 1 1 2 5 6 7 10 12 12 11 11 12 12 11 12 13 10 12 13 13 13 12 13 13 13 13 11 11 12 12 13 12
3 2 -0 -1 -2 -3 -3 -3 -0 -0 -2 -0 -1 0 2 3 3 5 8 10 11 11 11 11 11 13 13 13 12 12 13 12 13 13 12 11 13 12 12 11 11 12 12
4 2 1 -1 -2 -3 -4 -4 -1 -1 -2 -1 -2 -1 2 2 1 2 4 6 8 9 9 10 11 11 10 11 12 12 11 11 11 11 11 11 11 12 11 11 11 11 12
4 3 1 -1 -2 -3 -3 -4 -3 -2 -2 -3 -1 -3 -1 1 1 1 2 3 4 6 6 8 10 11 11 10 10 10 10 11 11 11 11 11 11 11 11 11 11 11 11
4 2 1 -1 -2 -3 -3 -3 -4 -4 -3 -4 -2 -4 -2 -0 -0 -0 0 1 2 3 4 5 9 10 10 8 9 9 9 10 10 10 11 10 10 11 11 11 11 11 11
3 2 1 -1 -2 -3 -4 -5 -5 -4 -4 -4 -4 -4 -3 0 1 0 2 0 1 2 3 4 5 6 7 7 7 9 9 9 10 10 10 10 10 11 11 11 11 11 11
2 1 0 -1 -1 -3 -4 -5 -6 -6 -6 -5 -5 -5 -5 -3 -1 1 2 3 2 1 2 2 4 5 7 5 8 9 9 9 9 10 9 10 10 10 11 11 11 11 11
1 0 -1 -2 -2 -3 -4 -5 -6 -6 -6 -6 -6 -6 -6 -5 -5 -4 -3 -1 -2 -1 1 -0 2 4 2 5 5 7 8 9 9 10 10 9 10 10 10 10 10 11 11
-0 -1 -1 -2 -3 -3 -4 -5 -6 -6 -6 -7 -7 -6 -6 -6 -6 -5 -5 -4 -4 -2 3 1 3 2 0 4 5 6 8 9 8 9 9 8 9 9 10 10 10 10 11
-1 -1 -2 -3 -3 -4 -4 -5 -5 -6 -7 -7 -7 -7 -7 -6 -6 -5 -5 -5 -3 2 3 -1 1 5 2 4 4 6 6 7 7 7 7 7 9 9 8 9 10 10 9
-2 -2 -3 -3 -3 -4 -5 -5 -5 -6 -7 -7 -7 -7 -7 -7 -7 -6 -6 -5 -5 -4 -3 -2 1 4 2 -2 2 4 5 6 6 6 7 7 8 9 8 8 9 9 9
-2 -3 -3 -3 -4 -4 -5 -5 -5 -6 -7 -8 -8 -7 -7 -7 -7 -7 -6 -6 -5 -5 -5 -5 -4 -4 -4 -2 1 1 2 4 5 7 7 7 7 7 8 7 8 8 9
-3 -3 -4 -4 -4 -5 -5 -5 -5 -7 -8 -8 -8 -8 -8 -7 -7 -7 -7 -7 -7 -7 -6 -6 -6 -5 -5 -4 -2 -1 -1 -1 3 4 6 7 7 8 8 7 7 8 9
-3 -3 -4 -4 -5 -5 -6 -6 -6 -8 -8 -8 -8 -8 -8 -8 -8 -8 -8 -8 -8 -8 -7 -5 -4 -5 -5 -6 -5 -3 -2 -3 -3 0 3 5 7 7 7 7 6 7 8
-3 -4 -5 -5 -5 -6 -6 -7 -7 -8 -9 -9 -9 -9 -9 -9 -9 -9 -9 -9 -9 -9 -9 -9 -9 -8 -6 -7 -5 -3 -3 -4 -4 -3 -1 1 3 4 6 6 6 7 7
-5 -5 -6 -6 -6 -7 -7 -8 -9 -9 -10 -10 -10 -9 -9 -9 -9 -9 -9 -9 -10 -10 -10 -10 -10 -10 -10 -9 -6 -6 -5 -5 -5 -4 -2 -1 1 2 2 3 5 6 6
-6 -7 -7 -8 -8 -8 -8 -9 -10 -10 -10 -10 -10 -10 -10 -10 -10 -10 -9 -9 -10 -11 -11 -11 -11 -11 -11 -11 -10 -8 -7 -7 -7 -5 -3 -2 -1 0 1 2 3 4 4
-9 -9 -10 -10 -10 -10 -10 -10 -11 -11 -11 -11 -10 -10 -10 -10 -10 -10 -10 -10 -10 -11 -11 -11 -12 -12 -12 -12 -11 -10 -8 -7 -7 -7 -6 -6 -4 -3 -1 -1 0 1 1

GFSMW_850_temp_153.txt.gz
Temp
7 8 9 9 10 9 8 8 9 10 10 11 11 12 13 14 13 12 13 15 15 15 15 15 15 16 16 16 16 16 16 15 15 15 15 15 15 15 15 15 15 14 14
9 8 7 6 5 6 7 7 7 7 7 8 8 8 9 11 13 12 12 12 13 15 16 15 15 16 16 15 15 16 16 15 15 15 15 14 14 14 14 14 15 14 14
7 7 6 5 4 4 5 6 6 6 6 6 7 9 9 9 11 13 13 14 13 13 13 15 15 15 16 16 16 15 16 16 15 14 16 15 14 15 13 13 13 14 14
7 6 7 6 5 5 4 4 5 5 5 5 5 5 5 5 6 8 11 13 14 13 13 13 15 15 16 15 15 15 15 15 14 15 15 15 15 13 13 12 13 13 13
6 6 5 4 4 4 4 4 3 3 3 4 3 4 4 4 4 5 6 10 12 14 14 14 13 14 15 15 15 15 15 15 15 15 14 14 13 14 14 13 14 13 13
6 5 5 4 4 4 4 3 3 3 3 3 3 2 2 2 3 3 4 6 9 12 14 13 14 13 15 15 15 15 15 14 15 14 14 13 13 13 13 12 12 13 14
5 5 4 4 4 4 3 1 1 1 1 1 2 2 1 0 0 1 2 4 6 7 11 12 13 13 13 14 14 15 14 14 14 14 13 13 13 12 11 12 12 12 13
5 5 4 3 3 2 1 1 0 0 0 0 0 1 -1 -1 -1 -0 1 2 3 5 7 8 11 13 13 13 13 13 14 14 14 13 13 12 11 10 12 10 11 11 11
5 5 4 3 2 1 1 -0 -1 -1 -1 -1 -1 0 -2 -2 -1 -0 -0 1 2 3 7 7 9 12 13 13 13 13 13 14 14 13 12 12 13 13 13 11 11 11 11
5 5 3 2 1 1 0 -1 -2 -3 -2 -3 -2 -1 -4 -3 -2 -2 -1 0 1 2 6 6 9 10 12 12 12 13 13 13 12 11 11 12 11 12 12 13 12 12 12
5 4 3 2 1 0 -0 -2 -3 -3 -3 -4 -3 -4 -5 -4 -4 -3 -2 -1 0 1 3 5 7 9 10 11 11 11 11 11 10 11 12 10 11 12 12 13 11 11 11
4 3 2 2 1 -0 -1 -2 -3 -4 -4 -4 -4 -5 -4 -5 -5 -4 -3 -2 -1 0 2 4 3 6 6 9 9 9 9 10 9 10 9 10 10 10 11 11 11 11 12
3 3 2 1 -0 -1 -2 -3 -4 -4 -5 -5 -5 -5 -4 -5 -5 -5 -4 -3 -2 -1 1 2 1 2 4 5 8 9 9 8 8 9 9 9 9 11 10 10 11 11 12
3 2 1 0 -1 -1 -2 -3 -4 -4 -5 -5 -6 -6 -5 -5 -6 -5 -5 -4 -3 -2 -1 -0 0 -0 0 1 5 7 7 8 8 9 9 9 9 9 9 9 10 10 11
2 1 0 -0 -1 -2 -3 -3 -4 -5 -5 -5 -5 -6 -7 -6 -6 -6 -6 -5 -4 -3 -3 -1 -0 -2 0 0 4 5 6 7 7 7 8 8 8 8 8 9 9 9 9
1 0 -0 -1 -2 -2 -3 -3 -4 -5 -5 -5 -5 -6 -7 -7 -6 -6 -5 -6 -5 -5 -4 -3 -1 0 -2 -2 -0 4 5 5 4 5 7 7 8 8 8 8 8 9 9
0 -0 -1 -2 -2 -3 -3 -4 -4 -5 -5 -5 -6 -7 -7 -7 -6 -6 -6 -6 -6 -6 -5 -5 -4 -3 -3 -1 -2 1 3 4 3 2 3 6 7 7 7 8 9 9 8
-0 -1 -1 -2 -3 -3 -4 -4 -5 -5 -6 -6 -7 -8 -7 -7 -7 -7 -7 -7 -7 -6 -5 -5 -5 -5 -5 -5 -2 -2 -2 1 1 2 3 4 5 5 6 7 8 9 9
-1 -1 -2 -2 -3 -4 -4 -5 -5 -6 -6 -7 -8 -8 -8 -8 -8 -8 -8 -8 -8 -7 -7 -7 -6 -6 -7 -6 -4 -4 -3 1 1 1 1 2 3 4 5 5 7 8 9
-1 -1 -2 -3 -4 -4 -5 -5 -6 -7 -7 -8 -9 -9 -9 -9 -9 -9 -8 -9 -8 -8 -7 -7 -8 -8 -7 -7 -8 -7 -4 -3 -1 0 2 1 2 3 3 3 4 7 8
-1 -2 -3 -4 -5 -5 -6 -7 -8 -8 -9 -9 -10 -9 -9 -9 -9 -9 -9 -9 -9 -9 -9 -8 -8 -7 -7 -8 -9 -7 -6 -6 -3 -1 -1 0 0 1 2 1 2 3 5
-3 -4 -4 -5 -6 -6 -7 -8 -9 -9 -9 -10 -10 -9 -10 -10 -10 -9 -9 -9 -9 -9 -9 -9 -9 -8 -8 -7 -6 -6 -8 -9 -7 -5 -4 -3 -2 -0 0 1 1 2 2
-4 -5 -6 -7 -8 -8 -9 -10 -10 -10 -10 -11 -11 -10 -10 -10 -10 -10 -10 -9 -10 -10 -10 -10 -10 -10 -9 -8 -8 -8 -8 -7 -6 -6 -6 -6 -5 -4 -4 -3 -1 -0 0
-6 -7 -8 -8 -10 -10 -10 -11 -11 -11 -11 -11 -10 -10 -10 -10 -10 -10 -10 -10 -10 -10 -10 -11 -11 -11 -9 -9 -10 -10 -9 -7 -7 -7 -8 -8 -8 -8 -8 -7 -4 -3 -3
-7 -8 -9 -10 -11 -11 -11 -12 -12 -12 -12 -11 -10 -10 -10 -10 -10 -10 -10 -10 -11 -11 -11 -11 -12 -12 -12 -12 -12 -12 -12 -12 -11 -9 -8 -8 -9 -8 -8 -8 -6 -4 -4
-9 -9 -10 -11 -11 -11 -13 -12 -12 -12 -12 -11 -11 -11 -11 -11 -10 -11 -11 -11 -11 -11 -11 -11 -12 -12 -13 -13 -13 -13 -13 -11 -11 -10 -10 -10 -10 -10 -9 -8 -8 -7 -5